Regional Weather Roundup
Issued by NWS

Home | Current Version | Previous Version | Text Only | Print | Product List | Glossary On
Versions: 1 2 3 4 5 6 7 8 9 10 11 12 13 14 15 16 17 18 19 20 21 22 23 24 25 26 27 28 29 30 31 32 33 34 35 36 37 38 39 40 41 42 43 44 45 46 47 48 49 50
000
ASUS42 KKEY 250910
RWRKEY

FLORIDA REGIONAL WEATHER ROUNDUP FOR THE FLORIDA KEYS
NATIONAL WEATHER SERVICE KEY WEST FLORIDA
500 AM EDT FRI JUL 25 2014

...SOUTH FLORIDA AND THE KEYS...

CITY           SKY/WX    TMP DP  RH WIND       PRES   REMARKS
FORT MYERS     PTCLDY    78  76  93 CALM      30.04R
SW REGIONAL AP PTCLDY    77  74  90 CALM      30.05R
NAPLES         MOCLDY    80  76  87 W3        30.04S
MIAMI          CLEAR     78  74  87 CALM      30.05R
WEST KENDALL   CLEAR     78  74  87 CALM      30.05R
HOMESTEAD      CLEAR     77  75  94 N1        30.04S
MARATHON       PTCLDY    84  77  79 SE5       30.04R HX  94
BOCA CHICA NAS PTCLDY    84  75  74 SE9       30.03S HX  92
KEY WEST INTL  PTCLDY    85  75  72 SE9       30.03S HX  93

...INTERNATIONAL WEATHER...

CITY           SKY/WX    TMP DP  RH WIND       PRES   REMARKS
NASSAU BAHAMAS PTCLDY    84  77  79 SE7       30.06  HX  94
CANCUN MEXICO  PTCLDY    75  73  94 CALM      30.01F
COZUMEL MEXICO MOCLDY    72  72 100 CALM      30.01F

ADJACENT COASTAL WATERS...

STATION/POSITION TIME  SKY/WX   TEMP    WIND        PRES    WAVE
                                AIR SEA DIR/SP/G            HT/PER
                 (UTC)          (F)     (DEG/KT/KT) (MB)    (FT/S)
PULASKI SHOAL LI 0900            85     150/  1/  2 1016.8F
SAND KEY         0900            84     110/  7/  8 1016.9R
SOMBRERO KEY     0900            84     110/  6/  8 1017.9R
LONG KEY         0800            85 88  160/  9/ 10 1017.7F
MOLASSES REEF    0900            84 86  120/  6/  7 1017.3R
FOWEY ROCKS      0900            84 87  160/  5/  5 1017.6R
Buoy 42080       NOT AVBL

$$


USA.gov is the U.S. government's official web portal to all federal, state and local government web resources and services.